GW4387 Weather Reports


time (UTC)temp
F
wind
direction
speed
knots
gust
knots
rain 1hr
in
rain 24hr
in
rain mn
in
humidity
%
barometer
mb
20260510193031 88 211 7.8 11.3 0.00 0.00 0.00 64 1016.2
20260510191534 88 213 2.6 9.6 0.00 0.00 0.00 61 1016.1
20260510190031 86 226 4.3 7.0 0.00 0.00 0.00 63 1016.0
20260510184523 87 207 6.1 9.6 0.00 0.01 0.00 60 1016.1
20260510183027 89 217 6.1 10.4 0.00 0.04 0.00 57 1016.0
20260510181527 91 352 7.0 16.5 0.00 0.04 0.00 55 1015.9
20260510180028 92 278 7.0 11.3 0.00 0.04 0.00 53 1015.7
20260510174526 90 298 5.2 10.4 0.00 0.04 0.00 58 1016.0
20260510173028 90 246 4.3 10.4 0.00 0.04 0.00 58 1016.0
20260510171538 91 292 3.5 10.4 0.00 0.04 0.00 57 1016.2
20260510170025 90 238 4.3 8.7 0.00 0.04 0.00 61 1016.4
20260510164528 88 39 0.9 3.5 0.00 0.04 0.00 65 1016.7
20260510163028 88 240 1.7 5.2 0.00 0.04 0.00 67 1016.9
20260510161521 88 302 1.7 7.8 0.00 0.04 0.00 65 1017.2
20260510160033 87 221 3.5 7.8 0.00 0.04 0.00 66 1017.2
20260510154512 86 236 3.5 9.6 0.00 0.04 0.00 66 1017.2
20260510153030 86 238 7.0 11.3 0.00 0.04 0.00 67 1017.0
20260510151527 86 301 3.5 8.7 0.00 0.04 0.00 69 1017.0
20260510150027 85 218 6.1 8.7 0.00 0.04 0.00 71 1017.1
20260510144514 85 217 7.8 10.4 0.00 0.04 0.00 71 1017.2
20260510143019 84 244 7.8 12.2 0.00 0.04 0.00 72 1017.0
20260510141525 82 229 7.0 9.6 0.00 0.04 0.00 76 1017.0
20260510140028 80 207 3.5 7.0 0.00 0.04 0.00 80 1016.8
20260510134516 79 193 4.3 7.8 0.00 0.04 0.00 81 1016.9
20260510133025 78 173 2.6 5.2 0.00 0.04 0.00 85 1016.7
20260510131528 77 180 2.6 5.2 0.00 0.04 0.00 87 1016.6
20260510130014 75 218 1.7 3.5 0.00 0.04 0.00 90 1016.7
20260510124518 75 246 1.7 3.5 0.00 0.04 0.00 93 1016.5
20260510123024 73 202 2.6 3.5 0.00 0.04 0.00 94 1016.4
20260510121527 72 215 3.5 5.2 0.00 0.04 0.00 1016.2
20260510120014 71 229 2.6 4.3 0.00 0.04 0.00 96 1016.1
20260510114525 71 220 1.7 2.6 0.00 0.04 0.00 96 1015.9
20260510113035 70 245 0.9 1.7 0.00 0.04 0.00 96 1015.5
20260510111526 69 223 0.0 1.7 0.00 0.04 0.00 96 1015.2
20260510110037 67 223 0.0 1.7 0.00 0.04 0.00 96 1014.9
20260510104525 68 223 0.0 1.7 0.00 0.04 0.00 96 1014.8
20260510103026 67 223 0.0 1.7 0.00 0.04 0.00 95 1014.7
20260510101514 68 230 0.9 1.7 0.00 0.04 0.00 95 1014.6
20260510100004 68 230 0.0 0.0 0.00 0.04 0.00 95 1014.3
20260510094504 69 230 0.0 0.0 0.00 0.04 0.00 95 1014.2
20260510093013 69 230 0.0 0.0 0.00 0.04 0.00 96 1014.1
20260510091519 69 230 0.0 1.7 0.00 0.04 0.00 96 1014.0
20260510090004 68 230 0.0 1.7 0.00 0.04 0.00 95 1013.9
20260510084506 68 230 0.0 1.7 0.00 0.04 0.00 94 1013.8
20260510083015 69 229 0.0 1.7 0.00 0.04 0.00 95 1013.4
20260510081529 69 229 0.0 1.7 0.00 0.04 0.00 95 1013.5
20260510080008 69 229 0.0 1.7 0.00 0.04 0.00 95 1013.5
20260510074509 69 230 0.0 1.7 0.00 0.04 0.00 94 1013.6
20260510073033 69 229 0.0 1.7 0.00 0.04 0.00 95 1013.7
20260510071523 69 229 0.0 1.7 0.00 0.04 0.00 95 1013.8
20260510070008 68 229 0.0 0.9 0.00 0.04 0.00 94 1014.0
20260510064515 69 230 0.9 1.7 0.00 0.04 0.00 94 1014.1
20260510063021 69 230 0.9 1.7 0.00 0.04 0.00 93 1014.4
20260510061504 70 230 0.0 1.7 0.00 0.04 0.00 94 1014.5
20260510060022 69 229 0.0 1.7 0.00 0.04 0.00 92 1014.9
20260510054519 70 229 0.0 1.7 0.00 0.04 0.00 92 1014.9
20260510053022 71 230 0.0 0.9 0.00 0.04 0.00 91 1014.9
20260510051508 71 230 0.0 0.0 0.00 0.04 0.00 91 1015.0
20260510050012 72 229 0.0 0.9 0.00 0.04 0.00 90 1015.1
20260510044524 73 229 0.0 1.7 0.00 0.04 0.00 90 1015.3
20260510043029 73 261 0.0 1.7 0.00 0.04 0.00 90 1015.6
20260510041510 73 115 0.0 1.7 0.00 0.04 0.00 89 1015.4
20260510040016 74 360 0.0 0.9 0.00 0.04 0.00 1015.6
20260510034522 74 17 0.0 1.7 0.00 0.04 0.04 88 1015.4
20260510033032 74 94 0.0 1.7 0.00 0.04 0.04 87 1015.5
20260510031520 74 350 0.0 1.7 0.00 0.04 0.04 87 1015.5
20260510030019 73 5 0.0 1.7 0.00 0.04 0.04 1015.5
20260510024522 73 124 0.0 2.6 0.00 0.04 0.04 88 1015.4
20260510023027 73 314 0.0 1.7 0.00 0.04 0.04 89 1015.2
20260510021527 73 314 0.0 1.7 0.00 0.04 0.04 88 1015.2
20260510020019 73 49 0.0 1.7 0.00 0.04 0.04 87 1015.0
20260510014537 74 49 0.0 0.0 0.00 0.04 0.04 86 1014.9
20260510013010 74 49 0.0 1.7 0.00 0.04 0.04 85 1014.7
20260510011518 75 49 0.0 1.7 0.00 0.04 0.04 84 1014.5
20260510010010 76 50 0.0 1.7 0.00 0.04 0.04 82 1014.4
20260510004505 77 331 0.9 1.7 0.00 0.04 0.04 81 1014.4
20260510003010 77 333 1.7 2.6 0.00 0.04 0.04 79 1014.1
20260510001518 78 322 0.0 1.7 0.00 0.04 0.04 77 1013.7
20260510000004 79 326 0.9 3.5 0.00 0.04 0.04 75 1013.6
20260509234510 79 352 0.9 4.3 0.00 0.04 0.04 75 1013.5
20260509233013 80 273 1.7 5.2 0.00 0.04 0.04 74 1013.4
20260509231522 81 344 1.7 5.2 0.00 0.04 0.04 72 1013.3
20260509230013 82 350 2.6 7.0 0.00 0.04 0.04 70 1013.0
20260509224511 82 300 3.5 10.4 0.00 0.04 0.04 69 1012.9
20260509223020 83 300 1.7 4.3 0.00 0.04 0.04 68 1012.7
20260509221524 84 296 2.6 6.1 0.00 0.04 0.04 67 1012.5
20260509220008 85 300 1.7 3.5 0.00 0.04 0.04 66 1012.0
20260509214512 87 306 1.7 7.0 0.00 0.04 0.04 65 1011.9
20260509213022 88 310 1.7 7.0 0.00 0.04 0.04 64 1011.8
20260509211524 88 265 1.7 6.1 0.00 0.04 0.04 66 1011.7
20260509210010 87 5 2.6 7.0 0.00 0.04 0.04 67 1011.8
20260509204516 87 271 1.7 5.2 0.00 0.04 0.04 71 1011.7
20260509203026 86 352 0.9 6.1 0.00 0.04 0.04 71 1011.8
20260509201526 84 227 3.5 6.1 0.00 0.04 0.04 73 1011.9
20260509200012 83 195 1.7 3.5 0.00 0.04 0.04 78 1012.0
20260509194531 80 337 0.0 1.7 0.01 0.04 0.04 80 1011.9